User: anonymous   Login
Location: Ellingshausen
(50.5460°N, 10.4723°E)
Time: 00:31:07
(UTC+00:00)
Language:

CZ-4 R/B - Orbit

View from above orbital plane
View from above orbital plane
View from above satellite
View from above satellite

Ground track
Ground track

The orbit is defined by the following mean orbital elements,

1 28059U          26067.55830565 +.00000000 +00000-0 +13910-3 0 00002
2 28059  98.6879  62.4187 0047211 234.4331 125.2460 14.55019220    05
Epoch (UTC): 08 March 2026 13:23:57
Eccentricity: 0.0047211
inclination: 98.6879°
perigee height: 676 km
apogee height: 743 km
right ascension of ascending node: 62.4187°
argument of perigee: 234.4331°
revolutions per day: 14.55019220
mean anomaly at epoch: 125.2460°

The dashed part of the orbit path shows where the satellite is in the earth's shadow,  

DLR